• In Lithuania
  • List of Countries
  • For 7 days
  • Water Temperature
  • Satellite Maps
  • Weather Map
  • Weather Widgets
  • user-avatar
    Login

    Hourly Weather Chongaj

    Today, 21 August, Tuesday

    Time Temperature Precipitation Wind Pressure Humidity
    00:00 +26°C° 0.1 mm 1 mps 736 mmHg 96%
    01:00 +25°C° 0 mm 1 mps 736 mmHg 96%
    02:00 +25°C° 0.3 mm 1 mps 735 mmHg 97%
    03:00 +25°C° 0.3 mm 1 mps 735 mmHg 97%
    04:00 +25°C° 0.3 mm 1 mps 735 mmHg 97%
    05:00 +25°C° 0.1 mm 2 mps 735 mmHg 96%
    06:00 +26°C° 0.1 mm 2 mps 735 mmHg 95%
    07:00 +26°C° 0 mm 1 mps 735 mmHg 92%
    08:00 +28°C° 0.5 mm 2 mps 735 mmHg 86%
    09:00 +29°C° 0.5 mm 2 mps 735 mmHg 79%
    10:00 +31°C° 0.5 mm 2 mps 735 mmHg 73%
    11:00 +31°C° 0.8 mm 3 mps 735 mmHg 71%
    12:00 +33°C° 0.8 mm 3 mps 734 mmHg 70%
    13:00 +33°C° 0.8 mm 3 mps 734 mmHg 68%
    14:00 +33°C° 1.7 mm 3 mps 733 mmHg 73%
    15:00 +31°C° 1.7 mm 2 mps 733 mmHg 77%
    16:00 +30°C° 1.7 mm 2 mps 733 mmHg 82%
    17:00 +29°C° 0.6 mm 2 mps 733 mmHg 85%
    18:00 +28°C° 0.6 mm 2 mps 733 mmHg 88%
    19:00 +27°C° 0.6 mm 2 mps 733 mmHg 92%
    20:00 +27°C° 0.1 mm 2 mps 734 mmHg 92%
    21:00 +27°C° 0.1 mm 2 mps 734 mmHg 92%
    22:00 +27°C° 0.1 mm 2 mps 735 mmHg 93%
    23:00 +26°C° 0.3 mm 2 mps 735 mmHg 93%

    Tomorrow, 22 August, Wednesday

    Time Temperature Precipitation Wind Pressure Humidity
    00:00 +26°C° 0.3 mm 2 mps 734 mmHg 93%
    01:00 +26°C° 0.3 mm 2 mps 734 mmHg 93%
    02:00 +26°C° 0.6 mm 2 mps 734 mmHg 94%
    03:00 +25°C° 0.6 mm 2 mps 734 mmHg 95%
    04:00 +25°C° 0.6 mm 2 mps 734 mmHg 96%
    05:00 +25°C° 1.3 mm 2 mps 734 mmHg 96%
    06:00 +25°C° 1.3 mm 2 mps 734 mmHg 96%
    07:00 +26°C° 1.3 mm 2 mps 735 mmHg 96%
    08:00 +26°C° 0.7 mm 2 mps 735 mmHg 93%
    09:00 +27°C° 0.7 mm 2 mps 735 mmHg 90%
    10:00 +28°C° 0.7 mm 3 mps 736 mmHg 87%
    11:00 +29°C° 0.5 mm 2 mps 735 mmHg 85%
    12:00 +29°C° 0.5 mm 2 mps 735 mmHg 82%
    13:00 +30°C° 0.5 mm 2 mps 734 mmHg 80%
    14:00 +30°C° 2 mm 2 mps 734 mmHg 82%
    15:00 +29°C° 2 mm 2 mps 733 mmHg 84%
    16:00 +29°C° 2 mm 2 mps 733 mmHg 86%
    17:00 +28°C° 1 mm 2 mps 733 mmHg 89%
    18:00 +27°C° 1 mm 1 mps 733 mmHg 92%
    19:00 +26°C° 1 mm 1 mps 733 mmHg 94%
    20:00 +26°C° 0.2 mm 1 mps 734 mmHg 94%
    21:00 +26°C° 0.2 mm 1 mps 735 mmHg 94%
    22:00 +26°C° 0.2 mm 1 mps 735 mmHg 94%
    23:00 +26°C° 0.5 mm 1 mps 735 mmHg 95%

    Day after tomorrow, 23 August, Thursday

    Time Temperature Precipitation Wind Pressure Humidity
    00:00 +26°C° 0.5 mm 1 mps 735 mmHg 95%
    01:00 +26°C° 0.5 mm 1 mps 734 mmHg 96%
    02:00 +25°C° 1.2 mm 1 mps 734 mmHg 96%
    03:00 +25°C° 1.2 mm 2 mps 734 mmHg 96%
    04:00 +25°C° 1.2 mm 2 mps 734 mmHg 96%
    05:00 +25°C° 1.1 mm 2 mps 735 mmHg 96%
    06:00 +26°C° 1.1 mm 2 mps 735 mmHg 95%
    07:00 +26°C° 1.1 mm 2 mps 735 mmHg 95%
    08:00 +27°C° 1.1 mm 2 mps 736 mmHg 92%
    09:00 +28°C° 1.1 mm 2 mps 736 mmHg 89%
    10:00 +29°C° 1.1 mm 3 mps 737 mmHg 87%
    11:00 +30°C° 0.9 mm 3 mps 736 mmHg 81%
    12:00 +31°C° 0.9 mm 3 mps 736 mmHg 76%
    13:00 +33°C° 0.9 mm 3 mps 735 mmHg 71%
    14:00 +33°C° 0.2 mm 3 mps 735 mmHg 70%
    15:00 +33°C° 0.2 mm 3 mps 734 mmHg 69%
    16:00 +33°C° 0.2 mm 3 mps 734 mmHg 68%
    17:00 +31°C° 0.7 mm 2 mps 734 mmHg 76%
    18:00 +29°C° 0.7 mm 2 mps 735 mmHg 83%
    19:00 +27°C° 0.7 mm 2 mps 735 mmHg 90%
    20:00 +27°C° 0.1 mm 1 mps 736 mmHg 91%
    21:00 +27°C° 0.1 mm 1 mps 736 mmHg 92%
    22:00 +27°C° 0.1 mm 1 mps 737 mmHg 93%
    23:00 +26°C° 0.5 mm 2 mps 737 mmHg 94%

    24 August, Friday

    Time Temperature Precipitation Wind Pressure Humidity
    00:00 +26°C° 0.5 mm 2 mps 736 mmHg 94%
    01:00 +26°C° 0.5 mm 2 mps 736 mmHg 95%
    02:00 +26°C° 0.2 mm 2 mps 736 mmHg 95%
    03:00 +25°C° 0.2 mm 2 mps 736 mmHg 95%
    04:00 +25°C° 0.2 mm 2 mps 736 mmHg 95%
    05:00 +25°C° 0.1 mm 2 mps 736 mmHg 94%
    06:00 +26°C° 0.1 mm 2 mps 736 mmHg 93%
    07:00 +26°C° 0.1 mm 2 mps 737 mmHg 93%
    08:00 +27°C° 0.4 mm 2 mps 737 mmHg 87%
    09:00 +29°C° 0.4 mm 2 mps 737 mmHg 82%
    10:00 +30°C° 0.4 mm 3 mps 738 mmHg 77%
    11:00 +30°C° 1.3 mm 3 mps 737 mmHg 77%
    12:00 +31°C° 1.3 mm 3 mps 736 mmHg 78%
    13:00 +31°C° 1.3 mm 3 mps 736 mmHg 78%
    14:00 +31°C° 0.6 mm 3 mps 735 mmHg 75%
    15:00 +31°C° 0.6 mm 3 mps 735 mmHg 72%
    16:00 +33°C° 0.6 mm 3 mps 734 mmHg 69%
    17:00 +30°C° 0.3 mm 2 mps 735 mmHg 75%
    18:00 +29°C° 0.3 mm 2 mps 735 mmHg 81%
    19:00 +28°C° 0.3 mm 1 mps 736 mmHg 87%
    20:00 +27°C° 0 mm 1 mps 736 mmHg 88%
    21:00 +27°C° 0 mm 1 mps 737 mmHg 89%
    22:00 +27°C° 0 mm 1 mps 737 mmHg 91%
    23:00 +26°C° 0.1 mm 1 mps 737 mmHg 91%

    25 August, Saturday

    Time Temperature Precipitation Wind Pressure Humidity
    00:00 +26°C° 0.1 mm 1 mps 736 mmHg 92%
    01:00 +26°C° 0.1 mm 1 mps 736 mmHg 92%
    02:00 +26°C° 0.1 mm 1 mps 736 mmHg 92%
    03:00 +25°C° 0.1 mm 1 mps 735 mmHg 93%
    04:00 +25°C° 0.1 mm 1 mps 735 mmHg 93%
    05:00 +25°C° 0 mm 1 mps 736 mmHg 92%
    06:00 +26°C° 0 mm 1 mps 736 mmHg 91%
    07:00 +26°C° 0 mm 1 mps 736 mmHg 89%
    08:00 +27°C° 0.1 mm 2 mps 737 mmHg 85%
    09:00 +28°C° 0.1 mm 2 mps 737 mmHg 80%
    10:00 +29°C° 0.1 mm 2 mps 737 mmHg 76%
    11:00 +30°C° 0.3 mm 2 mps 737 mmHg 75%
    12:00 +30°C° 0.3 mm 2 mps 736 mmHg 74%
    13:00 +30°C° 0.3 mm 2 mps 735 mmHg 73%
    14:00 +31°C° 0.1 mm 2 mps 735 mmHg 72%
    15:00 +31°C° 0.1 mm 2 mps 734 mmHg 71%
    16:00 +31°C° 0.1 mm 1 mps 733 mmHg 70%
    17:00 +30°C° 0 mm 1 mps 734 mmHg 74%
    18:00 +29°C° 0 mm 1 mps 734 mmHg 78%
    19:00 +28°C° 0 mm 1 mps 735 mmHg 83%
    20:00 +27°C° 0.2 mm 1 mps 735 mmHg 84%
    21:00 +27°C° 0.2 mm 1 mps 736 mmHg 86%
    22:00 +27°C° 0.2 mm 1 mps 736 mmHg 88%
    23:00 +26°C° 0.1 mm 1 mps 736 mmHg 89%

    26 August, Sunday

    Time Temperature Precipitation Wind Pressure Humidity
    00:00 +26°C° 0.1 mm 1 mps 735 mmHg 90%
    01:00 +26°C° 0.1 mm 1 mps 735 mmHg 92%
    02:00 +25°C° 0.1 mm 2 mps 735 mmHg 91%
    03:00 +25°C° 0.1 mm 2 mps 734 mmHg 91%
    04:00 +25°C° 0.1 mm 2 mps 734 mmHg 90%
    05:00 +25°C° 0.1 mm 2 mps 735 mmHg 90%
    06:00 +25°C° 0.1 mm 2 mps 735 mmHg 89%
    07:00 +26°C° 0.1 mm 2 mps 736 mmHg 88%
    08:00 +27°C° 0.2 mm 2 mps 736 mmHg 82%
    09:00 +29°C° 0.2 mm 2 mps 736 mmHg 76%
    10:00 +30°C° 0.2 mm 3 mps 736 mmHg 71%
    11:00 +31°C° 0.6 mm 3 mps 735 mmHg 70%
    12:00 +31°C° 0.6 mm 3 mps 735 mmHg 69%
    13:00 +33°C° 0.6 mm 3 mps 734 mmHg 67%
    14:00 +32°C° 0.7 mm 2 mps 734 mmHg 68%
    15:00 +32°C° 0.7 mm 2 mps 733 mmHg 69%
    16:00 +32°C° 0.7 mm 2 mps 733 mmHg 70%
    17:00 +30°C° 1.2 mm 2 mps 733 mmHg 77%
    18:00 +28°C° 1.2 mm 1 mps 734 mmHg 84%
    19:00 +27°C° 1.2 mm 1 mps 734 mmHg 90%
    20:00 +27°C° 0.5 mm 1 mps 735 mmHg 91%
    21:00 +26°C° 0.5 mm 1 mps 735 mmHg 91%
    22:00 +26°C° 0.5 mm 1 mps 736 mmHg 91%
    23:00 +26°C° 0.5 mm 1 mps 736 mmHg 92%
    Show more